IT9IRS-4 Weather Reports


Display with metric or nautical units.
time (UTC)temp
F
wind
direction
speed
MPH
gust
MPH
rain 1hr
in
rain 24hr
in
rain mn
in
humidity
%
barometer
mb
20260508054504 67 194 10.0 15.0 0.00 0.00 0.00 55 1012.0
20260508054004 67 189 10.0 15.0 0.00 0.00 0.00 56 1011.8
20260508053503 67 203 9.0 15.0 0.00 0.00 0.00 56 1011.7
20260508053004 67 205 8.0 12.0 0.00 0.00 0.00 57 1011.9
20260508052504 67 200 8.0 12.0 0.00 0.00 0.00 56 1011.5
20260508052217 67 233 7.0 9.0 0.00 0.00 0.00 57 1011.5
20260508051503 67 234 6.0 8.0 0.00 0.00 0.00 58 1011.6
20260508051003 66 227 6.0 8.0 0.00 0.00 0.00 58 1011.7
20260508050503 66 217 6.0 8.0 0.00 0.00 0.00 60 1011.6
20260508050214 66 216 7.0 8.0 0.00 0.00 0.00 60 1011.5
20260508045503 66 215 6.0 8.0 0.00 0.00 0.00 60 1011.5
20260508045004 66 265 3.0 8.0 0.00 0.00 0.00 60 1011.7
20260508044713 66 291 3.0 8.0 0.00 0.00 0.00 60 1011.6
20260508044006 65 328 3.0 6.0 0.00 0.00 0.00 60 1011.4
20260508043503 65 8 3.0 3.0 0.00 0.00 0.00 60 1011.4
20260508043003 65 27 3.0 5.0 0.00 0.00 0.00 61 1011.5
20260508042715 65 6 4.0 8.0 0.00 0.00 0.00 61 1011.4
20260508042003 65 251 7.0 9.0 0.00 0.00 0.00 60 1011.3
20260508041504 65 207 9.0 12.0 0.00 0.00 0.00 60 1011.2
20260508041004 65 196 9.0 12.0 0.00 0.00 0.00 60 1010.9
20260508040716 65 188 9.0 12.0 0.00 0.00 0.00 61 1010.9
20260508040004 65 199 11.0 12.0 0.00 0.00 0.00 61 1010.8
20260508035503 65 207 11.0 15.0 0.00 0.00 0.00 61 1010.7
20260508035004 65 204 11.0 15.0 0.00 0.00 0.00 61 1010.8
20260508034503 65 205 11.0 12.0 0.00 0.00 0.00 62 1010.8
20260508034004 65 206 10.0 12.0 0.00 0.00 0.00 62 1010.9
20260508033714 65 222 9.0 12.0 0.00 0.00 0.00 61 1010.8
20260508033003 65 234 9.0 15.0 0.00 0.00 0.00 61 1010.6
20260508032503 65 232 11.0 15.0 0.00 0.00 0.00 62 1010.6
20260508032003 65 209 12.0 15.0 0.00 0.00 0.00 62 1010.6
20260508031503 65 214 12.0 16.0 0.00 0.00 0.00 62 1010.3
20260508031004 65 229 11.0 16.0 0.00 0.00 0.00 62 1010.2
20260508030504 65 218 10.0 11.0 0.00 0.00 0.00 62 1010.4
20260508030004 66 200 9.0 11.0 0.00 0.00 0.00 62 1010.4
20260508025504 66 197 8.0 11.0 0.00 0.00 0.00 62 1010.2
20260508025216 66 203 7.0 10.0 0.00 0.00 0.00 62 1010.3
20260508024504 66 210 7.0 9.0 0.00 0.00 0.00 62 1010.3
20260508024003 66 216 8.0 9.0 0.00 0.00 0.00 63 1010.1
20260508023503 66 215 7.0 9.0 0.00 0.00 0.00 63 1010.1
20260508023003 66 199 6.0 7.0 0.00 0.00 0.00 63 1010.4
20260508022504 66 200 6.0 7.0 0.00 0.00 0.00 63 1010.1
20260508022003 66 209 7.0 9.0 0.00 0.00 0.00 63 1010.2
20260508021503 66 186 7.0 9.0 0.00 0.00 0.00 63 1010.2
20260508021003 66 168 5.0 7.0 0.00 0.00 0.00 63 1009.9
20260508020503 65 175 5.0 6.0 0.00 0.00 0.00 64 1010.0
20260508020005 65 176 6.0 7.0 0.00 0.00 0.00 64 1010.0
20260508015503 65 167 6.0 7.0 0.00 0.00 0.00 64 1010.3
20260508015006 65 190 5.0 6.0 0.00 0.00 0.00 64 1010.2
20260508014504 65 209 5.0 7.0 0.00 0.00 0.00 64 1009.9
20260508014003 65 208 6.0 8.0 0.00 0.00 0.00 64 1010.2
20260508013503 65 215 7.0 9.0 0.00 0.00 0.00 64 1010.4
20260508013213 65 221 7.0 9.0 0.00 0.00 0.00 64 1010.5
20260508012504 65 212 8.0 10.0 0.00 0.00 0.00 64 1010.3
20260508012003 66 204 9.0 11.0 0.00 0.00 0.00 63 1010.1
20260508011717 66 195 9.0 11.0 0.00 0.00 0.00 63 1010.1
20260508011215 65 217 9.0 11.0 0.00 0.00 0.00 63 1010.2
20260508010503 65 209 9.0 11.0 0.00 0.00 0.00 64 1009.8
20260508010217 65 199 9.0 11.0 0.00 0.00 0.00 64 1009.8
20260508005504 66 181 10.0 12.0 0.00 0.00 0.00 63 1009.9
20260508005003 66 188 10.0 12.0 0.00 0.00 0.00 63 1009.9
20260508004504 66 189 9.0 11.0 0.00 0.00 0.00 63 1010.0
20260508004213 66 186 9.0 11.0 0.00 0.00 0.00 64 1010.0
20260508003716 66 188 10.0 12.0 0.00 0.00 0.00 64 1010.0
20260508003003 66 186 11.0 16.0 0.00 0.00 0.00 64 1010.2
20260508002503 66 184 11.0 16.0 0.00 0.00 0.00 64 1010.1
20260508002004 66 192 11.0 15.0 0.00 0.00 0.00 64 1010.1
20260508001503 66 183 12.0 15.0 0.00 0.00 0.00 64 1010.1
20260508001004 66 151 13.0 15.0 0.00 0.00 0.00 64 1010.1
20260508000503 65 157 13.0 15.0 0.00 0.00 0.00 66 1010.1
20260508000004 65 197 8.0 15.0 0.00 0.00 0.00 66 1010.3
20260507235715 65 211 6.0 13.0 0.00 0.00 0.00 66 1010.5
20260507235004 65 273 5.0 10.0 0.00 0.00 0.00 67 1010.7
20260507234503 65 234 8.0 10.0 0.00 0.00 0.00 67 1010.7
20260507234214 65 206 9.0 12.0 0.00 0.00 0.00 67 1010.8
20260507233717 65 184 10.0 13.0 0.00 0.00 0.00 68 1010.9
20260507233004 65 193 11.0 15.0 0.00 0.00 0.00 69 1011.0
20260507232503 65 208 13.0 19.0 0.00 0.00 0.00 68 1011.2
20260507232216 66 205 13.0 19.0 0.00 0.00 0.00 67 1011.3
20260507231503 66 198 11.0 19.0 0.00 0.00 0.00 65 1011.3
20260507231003 66 186 11.0 16.0 0.00 0.00 0.00 65 1011.4
20260507230714 66 172 10.0 16.0 0.00 0.00 0.00 66 1011.4
20260507230005 66 202 11.0 16.0 0.00 0.00 0.00 66 1011.4
20260507225503 66 201 13.0 16.0 0.00 0.00 0.00 65 1011.6
20260507225003 66 186 12.0 16.0 0.00 0.00 0.00 65 1011.7
20260507224504 66 186 12.0 13.0 0.00 0.00 0.00 66 1011.6
20260507224004 66 199 9.0 13.0 0.00 0.00 0.00 66 1011.7
20260507223504 66 187 11.0 18.0 0.00 0.00 0.00 65 1012.0
20260507223005 66 185 13.0 18.0 0.00 0.00 0.00 62 1011.9
20260507222503 67 192 11.0 15.0 0.00 0.00 0.00 63 1012.0
20260507222004 68 207 9.0 15.0 0.00 0.00 0.00 62 1012.0
20260507221503 68 215 7.0 9.0 0.00 0.00 0.00 60 1012.0
20260507221004 68 219 6.0 7.0 0.00 0.00 0.00 58 1011.8
20260507220503 68 208 7.0 11.0 0.00 0.00 0.00 57 1011.7
20260507220004 68 198 10.0 13.0 0.00 0.00 0.00 57 1011.6
20260507215504 68 215 10.0 13.0 0.00 0.00 0.00 55 1011.7
20260507215003 69 223 10.0 13.0 0.00 0.00 0.00 54 1011.4
20260507214505 69 220 10.0 13.0 0.00 0.00 0.00 53 1011.5
20260507214003 69 209 10.0 13.0 0.00 0.00 0.00 53 1011.3
20260507213503 69 211 8.0 12.0 0.00 0.00 0.00 53 1011.1
20260507213003 69 221 7.0 10.0 0.00 0.00 0.00 52 1010.8
20260507212503 69 197 9.0 10.0 0.00 0.00 0.00 53 1010.7
20260507212217 69 194 9.0 12.0 0.00 0.00 0.00 53 1010.5
20260507211503 69 224 10.0 12.0 0.00 0.00 0.00 53 1010.4
20260507211003 69 207 9.0 12.0 0.00 0.00 0.00 53 1010.5
20260507210503 69 205 9.0 12.0 0.00 0.00 0.00 53 1010.6
20260507210004 69 222 7.0 12.0 0.00 0.00 0.00 53 1010.6
20260507205504 69 217 7.0 10.0 0.00 0.00 0.00 52 1010.8
20260507205003 69 214 8.0 12.0 0.00 0.00 0.00 52 1010.5
20260507204504 69 218 7.0 12.0 0.00 0.00 0.00 51 1010.6
20260507204003 69 233 6.0 8.0 0.00 0.00 0.00 50 1010.7
20260507203713 69 229 6.0 10.0 0.00 0.00 0.00 50 1010.9
20260507203003 69 220 7.0 15.0 0.00 0.00 0.00 49 1011.1
20260507202504 69 250 5.0 9.0 0.00 0.00 0.00 47 1010.8
20260507202004 69 270 5.0 9.0 0.00 0.00 0.00 46 1010.9
20260507201503 69 251 5.0 8.0 0.00 0.00 0.00 46 1011.1
20260507201004 69 231 5.0 8.0 0.00 0.00 0.00 45 1010.9
20260507200716 70 233 5.0 8.0 0.00 0.00 0.00 45 1010.8
20260507200004 70 252 6.0 8.0 0.00 0.00 0.00 44 1011.0
20260507195505 70 256 5.0 6.0 0.00 0.00 0.00 44 1010.8
20260507195003 70 252 6.0 11.0 0.00 0.00 0.00 44 1010.7
20260507194503 70 225 9.0 13.0 0.00 0.00 0.00 44 1010.8
20260507194004 70 217 10.0 13.0 0.00 0.00 0.00 43 1010.7
20260507193504 70 217 9.0 11.0 0.00 0.00 0.00 43 1010.7
20260507193003 70 208 9.0 11.0 0.00 0.00 0.00 43 1010.3
20260507192503 70 218 8.0 11.0 0.00 0.00 0.00 42 1010.4
20260507192005 70 231 7.0 10.0 0.00 0.00 0.00 42 1010.1
20260507191505 70 189 8.0 10.0 0.00 0.00 0.00 43 1010.2
20260507191003 70 197 6.0 9.0 0.00 0.00 0.00 43 1010.1
20260507190504 70 223 6.0 9.0 0.00 0.00 0.00 44 1010.1
20260507190005 70 211 8.0 11.0 0.00 0.00 0.00 44 1010.3
20260507185503 70 226 10.0 16.0 0.00 0.00 0.00 45 1010.2
20260507185003 70 210 12.0 16.0 0.00 0.00 0.00 47 1010.2
20260507184504 70 181 11.0 12.0 0.00 0.00 0.00 49 1010.0
20260507184004 70 176 11.0 12.0 0.00 0.00 0.00 50 1009.9
20260507183504 70 176 11.0 18.0 0.00 0.00 0.00 51 1009.8
20260507183003 70 170 10.0 18.0 0.00 0.00 0.00 56 1009.6
20260507182504 70 177 11.0 16.0 0.00 0.00 0.00 58 1009.7
20260507182003 70 170 14.0 20.0 0.00 0.00 0.00 59 1009.7
20260507181504 70 171 14.0 20.0 0.00 0.00 0.00 59 1009.7
20260507181003 70 204 13.0 20.0 0.00 0.00 0.00 59 1009.8
20260507180504 71 219 12.0 13.0 0.00 0.00 0.00 54 1009.8
20260507180004 71 193 9.0 13.0 0.00 0.00 0.00 54 1009.8
20260507175503 71 135 7.0 10.0 0.00 0.00 0.00 52 1009.7
20260507175217 71 145 6.0 10.0 0.00 0.00 0.00 50 1009.6
20260507174503 71 210 3.0 6.0 0.00 0.00 0.00 41 1009.8
20260507174004 71 257 3.0 4.0 0.00 0.00 0.00 40 1009.6
20260507173503 71 331 3.0 4.0 0.00 0.00 0.00 39 1009.5
20260507173004 72 344 3.0 4.0 0.00 0.00 0.00 38 1009.4
20260507172717 72 337 3.0 4.0 0.00 0.00 0.00 40 1009.4
20260507172003 72 348 3.0 4.0 0.00 0.00 0.00 40 1009.4
20260507171504 72 360 2.0 3.0 0.00 0.00 0.00 40 1009.2
20260507171004 72 360 1.0 3.0 0.00 0.00 0.00 37 1009.4
20260507170503 72 15 1.0 3.0 0.00 0.00 0.00 37 1009.3
20260507170216 72 13 2.0 3.0 0.00 0.00 0.00 37 1009.3
20260507165504 72 255 2.0 3.0 0.00 0.00 0.00 36 1009.2
20260507165003 72 221 2.0 3.0 0.00 0.00 0.00 36 1009.4
20260507164503 72 242 2.0 3.0 0.00 0.00 0.00 35 1009.7
20260507164004 72 39 3.0 5.0 0.00 0.00 0.00 36 1009.5
20260507163504 72 65 4.0 5.0 0.00 0.00 0.00 36 1009.6
20260507163003 72 53 4.0 5.0 0.00 0.00 0.00 36 1009.6
20260507162504 72 52 4.0 5.0 0.00 0.00 0.00 38 1009.7
20260507162004 72 77 5.0 6.0 0.00 0.00 0.00 41 1009.8
20260507161503 72 58 4.0 6.0 0.00 0.00 0.00 41 1009.4
20260507161216 72 61 4.0 6.0 0.00 0.00 0.00 40 1009.3
20260507160504 73 46 6.0 8.0 0.00 0.00 0.00 40 1009.4
20260507160217 73 58 6.0 8.0 0.00 0.00 0.00 40 1009.6
20260507155503 74 42 3.0 8.0 0.00 0.00 0.00 38 1009.4
20260507155004 74 332 3.0 5.0 0.00 0.00 0.00 40 1009.3
20260507154504 73 326 4.0 5.0 0.00 0.00 0.00 39 1009.5
20260507154003 74 324 3.0 4.0 0.00 0.00 0.00 40 1009.2
20260507153504 73 326 4.0 5.0 0.00 0.00 0.00 39 1009.6
20260507153004 73 317 5.0 6.0 0.00 0.00 0.00 36 1009.5
20260507152504 73 311 5.0 8.0 0.00 0.00 0.00 39 1009.5
20260507152003 73 330 6.0 8.0 0.00 0.00 0.00 40 1009.6
20260507151714 73 354 6.0 7.0 0.00 0.00 0.00 41 1009.7
20260507151004 74 10 5.0 8.0 0.00 0.00 0.00 41 1009.5
20260507150504 73 340 6.0 8.0 0.00 0.00 0.00 44 1009.5
20260507150003 73 306 6.0 7.0 0.00 0.00 0.00 46 1009.7
20260507145503 73 320 7.0 9.0 0.00 0.00 0.00 42 1010.0
20260507145004 72 331 7.0 9.0 0.00 0.00 0.00 41 1009.8
20260507144503 72 327 7.0 7.0 0.00 0.00 0.00 41 1009.9
20260507144003 72 310 7.0 9.0 0.00 0.00 0.00 41 1010.1
20260507143503 72 312 8.0 9.0 0.00 0.00 0.00 42 1009.8
20260507143003 72 310 7.0 9.0 0.00 0.00 0.00 41 1009.9
20260507142504 72 302 7.0 10.0 0.00 0.00 0.00 44 1009.9
20260507142004 72 308 7.0 10.0 0.00 0.00 0.00 49 1010.0
20260507141714 72 312 7.0 8.0 0.00 0.00 0.00 45 1010.1
20260507141217 73 312 6.0 6.0 0.00 0.00 0.00 46 1009.9
20260507140715 73 320 6.0 7.0 0.00 0.00 0.00 43 1009.9
20260507140004 73 347 5.0 7.0 0.00 0.00 0.00 43 1010.0
20260507135503 73 350 4.0 7.0 0.00 0.00 0.00 45 1009.8
20260507135214 73 355 4.0 6.0 0.00 0.00 0.00 46 1009.9
20260507134505 72 17 4.0 5.0 0.00 0.00 0.00 50 1009.9
20260507134004 72 37 4.0 5.0 0.00 0.00 0.00 51 1009.9
20260507133504 72 62 4.0 4.0 0.00 0.00 0.00 52 1009.9
20260507133004 71 39 5.0 7.0 0.00 0.00 0.00 54 1010.3
20260507132503 71 16 6.0 7.0 0.00 0.00 0.00 54 1010.1
20260507132004 71 12 5.0 7.0 0.00 0.00 0.00 53 1010.3
20260507131503 72 58 5.0 6.0 0.00 0.00 0.00 52 1010.2
20260507131003 71 70 5.0 6.0 0.00 0.00 0.00 53 1010.4
20260507130503 72 78 6.0 8.0 0.00 0.00 0.00 52 1010.2
20260507130006 72 112 4.0 8.0 0.00 0.00 0.00 50 1010.3
20260507125717 73 313 3.0 6.0 0.00 0.00 0.00 43 1010.4
20260507125215 72 309 4.0 9.0 0.00 0.00 0.00 37 1010.3
20260507124503 72 332 6.0 9.0 0.00 0.00 0.00 34 1010.6
20260507124004 73 357 6.0 10.0 0.00 0.00 0.00 35 1010.3
20260507123504 72 339 6.0 10.0 0.00 0.00 0.00 35 1010.5
20260507123003 72 320 7.0 10.0 0.00 0.00 0.00 37 1010.4
20260507122503 72 326 9.0 12.0 0.00 0.00 0.00 36 1010.3
20260507122004 72 324 10.0 12.0 0.00 0.00 0.00 37 1010.5
20260507121504 72 340 9.0 12.0 0.00 0.00 0.00 40 1010.3
20260507121003 72 25 8.0 12.0 0.00 0.00 0.00 40 1010.7
20260507120503 72 3 8.0 11.0 0.00 0.00 0.00 42 1010.5
20260507120004 72 323 11.0 16.0 0.00 0.00 0.00 42 1010.2
20260507115504 71 323 13.0 16.0 0.00 0.00 0.00 43 1010.4
20260507115215 71 332 12.0 16.0 0.00 0.00 0.00 43 1010.3
20260507114713 71 330 11.0 13.0 0.00 0.00 0.00 46 1010.3
20260507114216 70 324 12.0 16.0 0.00 0.00 0.00 57 1010.3
20260507113503 71 316 12.0 16.0 0.00 0.00 0.00 54 1010.2
20260507113004 71 318 10.0 13.0 0.00 0.00 0.00 53 1010.0
20260507112503 72 313 7.0 9.0 0.00 0.00 0.00 52 1010.0
20260507112003 73 316 7.0 9.0 0.00 0.00 0.00 52 1010.2
20260507111504 72 315 7.0 9.0 0.00 0.00 0.00 51 1010.3
20260507111003 72 259 5.0 9.0 0.00 0.00 0.00 51 1010.5
20260507110503 72 251 5.0 7.0 0.00 0.00 0.00 54 1010.5
20260507110004 72 271 5.0 7.0 0.00 0.00 0.00 54 1010.4
20260507105713 71 278 5.0 7.0 0.00 0.00 0.00 54 1010.6
20260507105216 71 294 6.0 8.0 0.00 0.00 0.00 54 1010.8
20260507104503 70 308 7.0 9.0 0.00 0.00 0.00 61 1010.8
20260507104004 70 300 8.0 11.0 0.00 0.00 0.00 63 1011.0
20260507103504 70 316 9.0 12.0 0.00 0.00 0.00 63 1011.2
20260507103004 70 327 9.0 15.0 0.00 0.00 0.00 62 1011.1
20260507102503 72 332 8.0 15.0 0.00 0.00 0.00 60 1011.1
20260507102214 72 336 8.0 15.0 0.00 0.00 0.00 60 1011.2
20260507101503 73 341 5.0 8.0 0.00 0.00 0.00 53 1011.0
20260507101215 72 310 6.0 8.0 0.00 0.00 0.00 57 1011.3
20260507100503 70 280 7.0 7.0 0.00 0.00 0.00 65 1010.7
20260507100004 70 298 7.0 8.0 0.00 0.00 0.00 65 1011.0
20260507095503 69 313 8.0 12.0 0.00 0.00 0.00 69 1011.0
20260507095217 69 324 9.0 13.0 0.00 0.00 0.00 70 1011.2
20260507094503 69 326 11.0 13.0 0.00 0.00 0.00 70 1011.3
20260507094004 68 324 12.0 15.0 0.00 0.00 0.00 70 1011.3
20260507093503 69 329 11.0 15.0 0.00 0.00 0.00 70 1011.1
20260507093003 70 320 10.0 11.0 0.00 0.00 0.00 68 1011.3
20260507092504 71 288 10.0 13.0 0.00 0.00 0.00 65 1011.1
20260507092003 71 279 8.0 13.0 0.00 0.00 0.00 60 1011.2
20260507091504 71 298 7.0 8.0 0.00 0.00 0.00 57 1011.4
20260507091003 71 314 6.0 8.0 0.00 0.00 0.00 56 1011.3
20260507090503 71 311 5.0 6.0 0.00 0.00 0.00 58 1011.3
20260507090004 70 314 6.0 8.0 0.00 0.00 0.00 62 1011.2
20260507085503 70 315 8.0 11.0 0.00 0.00 0.00 63 1011.1
20260507085217 70 308 8.0 11.0 0.00 0.00 0.00 64 1011.4
20260507084504 70 292 7.0 9.0 0.00 0.00 0.00 62 1011.7
20260507084004 70 306 7.0 9.0 0.00 0.00 0.00 63 1011.5
20260507083503 69 318 7.0 9.0 0.00 0.00 0.00 63 1011.6
20260507083005 69 318 8.0 9.0 0.00 0.00 0.00 66 1011.4
20260507082503 70 330 7.0 9.0 0.00 0.00 0.00 64 1011.5
20260507082215 70 338 7.0 9.0 0.00 0.00 0.00 64 1011.4
20260507081504 70 338 7.0 10.0 0.00 0.00 0.00 66 1011.5
20260507081004 70 343 6.0 10.0 0.00 0.00 0.00 65 1011.5
20260507080503 70 360 4.0 6.0 0.00 0.00 0.00 63 1011.9
20260507080005 70 336 5.0 6.0 0.00 0.00 0.00 63 1011.6
20260507075715 70 328 5.0 6.0 0.00 0.00 0.00 63 1011.8
20260507075003 70 335 6.0 6.0 0.00 0.00 0.00 64 1012.1
20260507074716 69 335 5.0 6.0 0.00 0.00 0.00 63 1012.0
20260507074003 69 306 4.0 6.0 0.00 0.00 0.00 67 1012.1
20260507073503 69 318 3.0 6.0 0.00 0.00 0.00 66 1012.1
20260507073004 69 350 3.0 4.0 0.00 0.00 0.00 68 1012.1
20260507072504 69 342 4.0 4.0 0.00 0.00 0.00 68 1012.1
20260507072006 69 333 3.0 4.0 0.00 0.00 0.00 67 1011.8
20260507071714 70 334 2.0 3.0 0.00 0.00 0.00 67 1011.7
20260507071003 69 343 2.0 3.0 0.00 0.00 0.00 66 1011.8
20260507070506 69 354 2.0 7.0 0.00 0.00 0.00 68 1012.0
20260507070217 69 51 3.0 7.0 0.00 0.00 0.00 69 1012.0
20260507065504 68 64 5.0 7.0 0.00 0.00 0.00 70 1011.8
20260507065004 67 57 5.0 6.0 0.00 0.00 0.00 71 1012.0
20260507064716 67 33 4.0 6.0 0.00 0.00 0.00 71 1011.9
20260507064003 67 66 4.0 6.0 0.00 0.00 0.00 73 1012.0
20260507063503 67 42 4.0 6.0 0.00 0.00 0.00 73 1012.0
20260507063003 66 28 4.0 6.0 0.00 0.00 0.00 73 1011.9
20260507062503 66 34 3.0 5.0 0.00 0.00 0.00 77 1011.8
20260507062004 66 327 2.0 3.0 0.00 0.00 0.00 79 1012.0
20260507061504 65 324 2.0 3.0 0.00 0.00 0.00 80 1012.1
20260507061004 65 324 2.0 3.0 0.00 0.00 0.00 81 1011.9
20260507060504 64 323 2.0 2.0 0.00 0.00 0.00 83 1012.0
20260507060004 64 326 1.0 2.0 0.00 0.00 0.00 83 1012.0
20260507055503 64 314 2.0 3.0 0.00 0.00 0.00 83 1012.0
20260507055003 63 315 2.0 3.0 0.00 0.00 0.00 83 1012.0